Greenville, AL

12:10 PM CDT on March 30, 2017 (GMT -0500)
Greenville Municipal

Weather History for KPRN - March, 2013

Change the Weather History Date:

Wednesday, March 13, 2013

  Actual Average Record
Temperature  
Mean Temperature 48 °F -  
Max Temperature 60 °F 71 °F 87 °F (1955)
Min Temperature 36 °F 46 °F 25 °F (1932)
Degree Days  
Heating Degree Days 17    
Moisture  
Dew Point 27 °F    
Average Humidity 47    
Maximum Humidity 89    
Minimum Humidity 20    
Precipitation  
Precipitation 0.00 in - - ()
Sea Level Pressure  
Sea Level Pressure 30.25 in    
Wind  
Wind Speed 6 mph (NW)    
Max Wind Speed 21 mph    
Max Gust Speed 25 mph    
Visibility 10 miles    
Events Rain    
Averages and records for this station are not official NWS values.
T = Trace of Precipitation, MM = Missing Value Source: NWS Daily Summary

Daily Weather History Graph

Daily Weather History Graph

Search for Another Location

Airport or City:

Trip Planner

Search our weather history database for the weather conditions in past years. The results will help you decide how hot, cold, wet, or windy it might be!

Date:

Astronomy

Mar. 13, 2013 Rise Set
Actual Time 6:58 AM CDT 6:53 PM CDT
Civil Twilight 6:34 AM CDT 7:17 PM CDT
Nautical Twilight 6:06 AM CDT 7:45 PM CDT
Astronomical Twilight 5:37 AM CDT 8:14 PM CDT
Moon 7:47 AM CDT (3/13) 8:57 PM CDT (3/13)
Length of Visible Light 12h 43m
Length of Day
11h 54m
Waxing Crescent, 4% of the Moon is Illuminated
Mar 13
Waxing Crescent
Mar 19
First Quarter
Mar 27
Full
Apr 2
Last Quarter
Apr 10
New

Hourly Weather History & Observations

Time (CDT) Temp. Windchill Dew Point Humidity Pressure Visibility Wind Dir Wind Speed Gust Speed Precip Events Conditions
1:56 AM 46.9 °F - 33.1 °F 59% 30.17 in 10.0 mi NNW 4.6 mph - N/A   Clear
2:56 AM 46.0 °F - 33.1 °F 61% 30.17 in 10.0 mi Calm Calm - N/A   Clear
3:56 AM 39.0 °F - 35.1 °F 86% 30.17 in 10.0 mi Calm Calm - N/A   Clear
4:56 AM 37.0 °F - 34.0 °F 89% 30.19 in 10.0 mi Calm Calm - N/A   Clear
5:56 AM 36.0 °F - 33.1 °F 89% 30.22 in 10.0 mi Calm Calm - N/A   Clear
6:56 AM 36.0 °F - 32.0 °F 86% 30.24 in 10.0 mi Calm Calm - N/A   Clear
7:56 AM 42.1 °F - 36.0 °F 79% 30.25 in 10.0 mi Calm Calm - N/A   Clear
8:56 AM 50.0 °F - 34.0 °F 54% 30.28 in 10.0 mi Variable 5.8 mph - N/A   Clear
9:56 AM 52.0 °F - 30.0 °F 43% 30.28 in 10.0 mi NNW 13.8 mph - 0.00 in Rain Light Rain
10:56 AM 55.0 °F - 30.0 °F 38% 30.30 in 10.0 mi NW 12.7 mph 17.3 mph 0.00 in   Clear
11:56 AM 57.0 °F - 28.0 °F 33% 30.29 in 10.0 mi WNW 13.8 mph 25.3 mph 0.00 in   Clear
12:56 PM 60.1 °F - 26.1 °F 27% 30.26 in 10.0 mi WNW 10.4 mph 19.6 mph N/A   Clear
1:56 PM 60.1 °F - 23.0 °F 24% 30.24 in 10.0 mi NW 12.7 mph 24.2 mph 0.00 in   Clear
2:56 PM 60.1 °F - 21.0 °F 22% 30.23 in 10.0 mi West 20.7 mph 25.3 mph 0.00 in   Clear
3:56 PM 60.1 °F - 18.0 °F 20% 30.23 in 10.0 mi NNW 15.0 mph 24.2 mph N/A   Clear
4:56 PM 59.0 °F - 19.0 °F 21% 30.23 in 10.0 mi NNW 13.8 mph 21.9 mph N/A   Clear
5:56 PM 57.9 °F - 21.0 °F 24% 30.24 in 10.0 mi NW 12.7 mph 21.9 mph N/A   Clear
6:56 PM 55.0 °F - 21.9 °F 28% 30.25 in 10.0 mi WNW 6.9 mph - N/A   Clear
7:56 PM 52.0 °F - 23.0 °F 32% 30.26 in 10.0 mi WNW 6.9 mph - N/A   Clear
8:56 PM 50.0 °F - 24.1 °F 36% 30.27 in 10.0 mi WNW 4.6 mph - N/A   Clear
9:56 PM 48.0 °F - 25.0 °F 41% 30.29 in 10.0 mi WNW 6.9 mph - N/A   Clear
10:56 PM 48.0 °F - 24.1 °F 39% 30.32 in 10.0 mi NW 8.1 mph - N/A   Clear
11:56 PM 45.0 °F 40.6 °F 24.1 °F 44% 30.31 in 10.0 mi NNW 8.1 mph - N/A   Clear